NKS420 MMMX-MMGL

Flight info

Callsign NKS420
Flight time 0h 57m
Altitude 36000
Route OVAGO3A OVAGO UT123 IGSON IGSON1B
Aircraft A21N/M-SDE2E3FGHIRWXY/LB1

Departure

Time 2026-05-06 03:06
Airport Mexico City Benito Juárez International Airport (MMMX)

Arrival

Time 2026-05-06 04:04
Airport Guadalajara International Airport (MMGL)
Time Latitude Longitude Altitude Speed Heading
2026-05-06 02:44 19.43616 -99.07936 7305 ft 0 kts 329°
2026-05-06 02:56 19.43609 -99.07932 7305 ft 3 kts 329°
2026-05-06 02:56 19.43595 -99.07922 7306 ft 2 kts 329°
2026-05-06 02:57 19.43580 -99.07913 7306 ft 2 kts 329°
2026-05-06 02:57 19.43566 -99.07904 7305 ft 2 kts 329°
2026-05-06 02:57 19.43553 -99.07893 7305 ft 2 kts 315°
2026-05-06 02:57 19.43546 -99.07878 7306 ft 2 kts 261°
2026-05-06 02:58 19.43546 -99.07874 7306 ft 0 kts 245°
2026-05-06 02:58 19.43545 -99.07877 7306 ft 1 kts 244°
2026-05-06 02:58 19.43544 -99.07880 7306 ft 0 kts 243°
2026-05-06 02:59 19.43543 -99.07880 7306 ft 1 kts 243°
2026-05-06 03:00 19.43527 -99.07913 7306 ft 9 kts 240°
2026-05-06 03:00 19.43485 -99.07988 7306 ft 14 kts 239°
2026-05-06 03:00 19.43432 -99.08083 7306 ft 15 kts 239°
2026-05-06 03:00 19.43376 -99.08183 7305 ft 16 kts 239°
2026-05-06 03:01 19.43322 -99.08279 7305 ft 15 kts 239°
2026-05-06 03:01 19.43268 -99.08375 7305 ft 15 kts 238°
2026-05-06 03:01 19.43212 -99.08468 7304 ft 15 kts 246°
2026-05-06 03:01 19.43160 -99.08569 7304 ft 16 kts 239°
2026-05-06 03:02 19.43101 -99.08674 7304 ft 17 kts 239°
2026-05-06 03:02 19.43036 -99.08790 7303 ft 19 kts 237°
2026-05-06 03:02 19.42968 -99.08911 7304 ft 19 kts 239°
2026-05-06 03:02 19.42905 -99.09011 7304 ft 9 kts 224°
2026-05-06 03:03 19.42862 -99.09043 7304 ft 0 kts 208°
2026-05-06 03:03 19.42859 -99.09045 7304 ft 0 kts 208°
2026-05-06 03:03 19.42858 -99.09045 7304 ft 1 kts 208°
2026-05-06 03:03 19.42829 -99.09062 7304 ft 9 kts 207°
2026-05-06 03:04 19.42774 -99.09074 7305 ft 0 kts 167°
2026-05-06 03:04 19.42762 -99.09065 7305 ft 2 kts 134°
2026-05-06 03:04 19.42759 -99.09052 7305 ft 2 kts 90°
2026-05-06 03:04 19.42771 -99.09024 7305 ft 8 kts 61°
2026-05-06 03:05 19.42812 -99.08949 7305 ft 16 kts 59°
2026-05-06 03:05 19.42886 -99.08814 7305 ft 34 kts 64°
2026-05-06 03:05 19.43081 -99.08464 7303 ft 67 kts 58°
2026-05-06 03:05 19.43419 -99.07868 7308 ft 124 kts 59°
2026-05-06 03:06 19.43964 -99.06903 7308 ft 178 kts 59°
2026-05-06 03:06 19.44659 -99.05668 7410 ft 205 kts 60°
2026-05-06 03:06 19.45385 -99.04311 7705 ft 214 kts 59°
2026-05-06 03:06 19.46151 -99.02955 8023 ft 215 kts 58°
2026-05-06 03:07 19.46915 -99.01618 8364 ft 215 kts 58°
2026-05-06 03:07 19.47700 -99.00239 8658 ft 219 kts 58°
2026-05-06 03:07 19.48493 -98.98838 8795 ft 230 kts 59°
2026-05-06 03:07 19.49301 -98.97303 8821 ft 248 kts 68°
2026-05-06 03:08 19.49680 -98.95473 8912 ft 263 kts 93°
2026-05-06 03:08 19.49193 -98.93580 9053 ft 275 kts 123°
2026-05-06 03:08 19.47822 -98.92158 9283 ft 281 kts 154°
2026-05-06 03:08 19.46595 -98.91711 9501 ft 283 kts 174°
2026-05-06 03:09 19.44655 -98.91939 9867 ft 284 kts 204°
2026-05-06 03:09 19.42711 -98.93773 10402 ft 285 kts 239°
2026-05-06 03:09 19.42081 -98.94999 10706 ft 286 kts 244°
2026-05-06 03:09 19.40936 -98.97565 11298 ft 289 kts 245°
2026-05-06 03:10 19.40082 -98.99501 11721 ft 291 kts 245°
2026-05-06 03:10 19.39225 -99.01416 12164 ft 292 kts 244°
2026-05-06 03:10 19.38341 -99.03368 12579 ft 294 kts 244°
2026-05-06 03:10 19.37469 -99.05337 12994 ft 296 kts 249°
2026-05-06 03:11 19.36905 -99.07453 13324 ft 302 kts 259°
2026-05-06 03:11 19.36546 -99.09687 13526 ft 312 kts 261°
2026-05-06 03:11 19.36227 -99.11949 14103 ft 307 kts 262°
2026-05-06 03:11 19.35915 -99.14174 14658 ft 305 kts 261°
2026-05-06 03:12 19.35598 -99.16401 15112 ft 306 kts 261°
2026-05-06 03:12 19.35275 -99.18638 15533 ft 308 kts 261°
2026-05-06 03:12 19.34946 -99.20897 15948 ft 311 kts 261°
2026-05-06 03:12 19.34615 -99.23165 16368 ft 313 kts 261°
2026-05-06 03:13 19.34284 -99.25422 16736 ft 315 kts 261°
2026-05-06 03:13 19.33946 -99.27727 17104 ft 318 kts 261°
2026-05-06 03:13 19.33604 -99.30052 17464 ft 320 kts 261°
2026-05-06 03:13 19.33259 -99.32395 17808 ft 323 kts 261°
2026-05-06 03:14 19.32911 -99.34752 18136 ft 326 kts 261°
2026-05-06 03:14 19.32559 -99.37142 18436 ft 329 kts 261°
2026-05-06 03:14 19.32177 -99.39544 18725 ft 332 kts 259°
2026-05-06 03:14 19.31730 -99.41953 19019 ft 335 kts 258°
2026-05-06 03:15 19.31264 -99.44379 19316 ft 338 kts 258°
2026-05-06 03:15 19.30792 -99.46820 19620 ft 340 kts 258°
2026-05-06 03:15 19.30316 -99.49282 19928 ft 342 kts 258°
2026-05-06 03:15 19.29838 -99.51758 20225 ft 344 kts 258°
2026-05-06 03:16 19.29357 -99.54248 20514 ft 346 kts 258°
2026-05-06 03:16 19.28873 -99.56754 20797 ft 349 kts 258°
2026-05-06 03:16 19.28392 -99.59243 21085 ft 351 kts 258°
2026-05-06 03:16 19.27901 -99.61785 21362 ft 353 kts 258°
2026-05-06 03:17 19.27407 -99.64337 21637 ft 355 kts 258°
2026-05-06 03:17 19.26909 -99.66906 21899 ft 358 kts 258°
2026-05-06 03:17 19.26408 -99.69494 22173 ft 359 kts 258°
2026-05-06 03:17 19.25903 -99.72095 22441 ft 362 kts 258°
2026-05-06 03:18 19.25396 -99.74709 22697 ft 364 kts 258°
2026-05-06 03:18 19.24884 -99.77345 22908 ft 367 kts 258°
2026-05-06 03:18 19.24370 -99.80006 23168 ft 369 kts 259°
2026-05-06 03:18 19.23877 -99.82679 23431 ft 371 kts 259°
2026-05-06 03:19 19.23393 -99.85339 23658 ft 373 kts 259°
2026-05-06 03:19 19.22902 -99.88047 23862 ft 376 kts 259°
2026-05-06 03:19 19.22408 -99.90772 24086 ft 378 kts 259°
2026-05-06 03:19 19.21909 -99.93514 24312 ft 380 kts 259°
2026-05-06 03:20 19.20906 -99.99022 24850 ft 383 kts 259°
2026-05-06 03:20 19.20399 -100.01799 25095 ft 384 kts 259°
2026-05-06 03:20 19.19891 -100.04582 25331 ft 386 kts 259°
2026-05-06 03:21 19.19381 -100.07372 25590 ft 387 kts 259°
2026-05-06 03:21 19.18920 -100.10192 25856 ft 389 kts 263°
2026-05-06 03:21 19.18762 -100.13017 26095 ft 390 kts 271°
2026-05-06 03:21 19.19015 -100.15875 26342 ft 392 kts 281°
2026-05-06 03:22 19.19667 -100.18677 26571 ft 393 kts 286°
2026-05-06 03:22 19.20480 -100.21455 26798 ft 396 kts 288°
2026-05-06 03:22 19.21358 -100.24218 27019 ft 398 kts 289°
2026-05-06 03:22 19.22269 -100.26998 27248 ft 400 kts 289°
2026-05-06 03:23 19.23188 -100.29789 27491 ft 401 kts 289°
2026-05-06 03:23 19.24102 -100.32583 27707 ft 403 kts 289°
2026-05-06 03:23 19.25012 -100.35397 27893 ft 406 kts 289°
2026-05-06 03:23 19.25919 -100.38230 28080 ft 408 kts 288°
2026-05-06 03:24 19.26829 -100.41088 28255 ft 410 kts 288°
2026-05-06 03:24 19.27738 -100.43954 28466 ft 412 kts 288°
2026-05-06 03:24 19.28650 -100.46835 28707 ft 412 kts 288°
2026-05-06 03:24 19.29562 -100.49718 28907 ft 414 kts 288°
2026-05-06 03:25 19.30478 -100.52615 29105 ft 415 kts 288°
2026-05-06 03:25 19.31393 -100.55511 29307 ft 416 kts 288°
2026-05-06 03:25 19.32315 -100.58428 29496 ft 418 kts 288°
2026-05-06 03:25 19.33227 -100.61315 29674 ft 419 kts 288°
2026-05-06 03:26 19.34152 -100.64246 29865 ft 420 kts 288°
2026-05-06 03:26 19.35084 -100.67197 29983 ft 423 kts 288°
2026-05-06 03:26 19.36987 -100.73143 30184 ft 428 kts 289°
2026-05-06 03:27 19.38004 -100.76113 30350 ft 429 kts 290°
2026-05-06 03:27 19.39030 -100.79085 30502 ft 430 kts 290°
2026-05-06 03:27 19.40065 -100.82078 30657 ft 431 kts 290°
2026-05-06 03:27 19.41095 -100.85064 30841 ft 432 kts 290°
2026-05-06 03:28 19.42127 -100.88061 31018 ft 432 kts 290°
2026-05-06 03:28 19.43155 -100.91048 31198 ft 433 kts 290°
2026-05-06 03:28 19.44176 -100.94016 31352 ft 433 kts 290°
2026-05-06 03:28 19.45210 -100.97027 31456 ft 435 kts 290°
2026-05-06 03:29 19.47295 -101.03104 31558 ft 441 kts 290°
2026-05-06 03:29 19.49390 -101.09216 31777 ft 443 kts 290°
2026-05-06 03:30 19.50444 -101.12293 31903 ft 443 kts 290°
2026-05-06 03:30 19.51143 -101.14335 31975 ft 444 kts 290°
2026-05-06 03:30 19.52543 -101.18429 32102 ft 446 kts 290°
2026-05-06 03:30 19.53600 -101.21522 32179 ft 447 kts 290°
2026-05-06 03:31 19.54660 -101.24624 32281 ft 448 kts 290°
2026-05-06 03:31 19.55378 -101.26729 32347 ft 448 kts 290°
2026-05-06 03:31 19.56430 -101.29812 32483 ft 449 kts 290°
2026-05-06 03:31 19.57494 -101.32931 32587 ft 449 kts 290°
2026-05-06 03:32 19.59621 -101.39176 32720 ft 452 kts 290°
2026-05-06 03:32 19.61761 -101.45465 32894 ft 453 kts 290°
2026-05-06 03:33 19.63902 -101.51765 33060 ft 454 kts 290°
2026-05-06 03:33 19.64972 -101.54918 33174 ft 455 kts 290°
2026-05-06 03:33 19.66033 -101.58044 33268 ft 455 kts 290°
2026-05-06 03:34 19.68175 -101.64365 33427 ft 456 kts 289°
2026-05-06 03:34 19.70319 -101.70701 33176 ft 452 kts 289°
2026-05-06 03:35 19.71381 -101.73841 32522 ft 451 kts 289°
2026-05-06 03:35 19.72439 -101.76971 31757 ft 452 kts 289°
2026-05-06 03:35 19.72693 -101.77724 31512 ft 454 kts 289°
2026-05-06 03:35 19.73522 -101.80180 30674 ft 461 kts 289°
2026-05-06 03:36 19.74600 -101.83372 29752 ft 467 kts 289°
2026-05-06 03:36 19.75687 -101.86597 29387 ft 457 kts 289°
2026-05-06 03:36 19.76747 -101.89740 29153 ft 446 kts 289°
2026-05-06 03:36 19.77783 -101.92817 28841 ft 437 kts 289°
2026-05-06 03:37 19.78808 -101.95861 27972 ft 441 kts 289°
2026-05-06 03:37 19.79852 -101.98966 26893 ft 450 kts 289°
2026-05-06 03:37 19.80906 -102.02100 25776 ft 459 kts 289°
2026-05-06 03:37 19.81986 -102.05316 24611 ft 467 kts 289°
2026-05-06 03:38 19.83082 -102.08580 23778 ft 467 kts 289°
2026-05-06 03:38 19.84166 -102.11810 23233 ft 459 kts 289°
2026-05-06 03:38 19.85226 -102.14972 23040 ft 444 kts 289°
2026-05-06 03:38 19.86238 -102.17994 23004 ft 425 kts 289°
2026-05-06 03:39 19.87198 -102.20859 22933 ft 408 kts 289°
2026-05-06 03:39 19.88135 -102.23662 22694 ft 397 kts 289°
2026-05-06 03:39 19.89048 -102.26393 22441 ft 386 kts 289°
2026-05-06 03:39 19.89936 -102.29051 22195 ft 377 kts 289°
2026-05-06 03:40 19.90809 -102.31662 22023 ft 374 kts 289°
2026-05-06 03:40 19.91678 -102.34264 22005 ft 373 kts 289°
2026-05-06 03:40 19.92548 -102.36866 22000 ft 374 kts 289°
2026-05-06 03:40 19.93419 -102.39474 22004 ft 374 kts 289°
2026-05-06 03:41 19.94289 -102.42080 22001 ft 374 kts 289°
2026-05-06 03:41 19.95157 -102.44685 22000 ft 374 kts 289°
2026-05-06 03:41 19.96026 -102.47292 21996 ft 374 kts 289°
2026-05-06 03:41 19.96601 -102.49020 21792 ft 374 kts 289°
2026-05-06 03:42 19.97761 -102.52508 20683 ft 384 kts 289°
2026-05-06 03:42 19.98366 -102.54328 20165 ft 386 kts 289°
2026-05-06 03:42 19.99553 -102.57898 19378 ft 384 kts 290°
2026-05-06 03:42 20.00730 -102.60444 18846 ft 381 kts 307°
2026-05-06 03:43 20.02628 -102.62366 18279 ft 377 kts 327°
2026-05-06 03:43 20.04910 -102.63720 17753 ft 375 kts 333°
2026-05-06 03:43 20.07209 -102.64924 17225 ft 371 kts 334°
2026-05-06 03:43 20.09519 -102.66128 16698 ft 368 kts 333°
2026-05-06 03:44 20.12169 -102.67528 16084 ft 365 kts 333°
2026-05-06 03:44 20.14112 -102.68490 15629 ft 363 kts 340°
2026-05-06 03:44 20.16548 -102.68955 15070 ft 361 kts
2026-05-06 03:44 20.19047 -102.68668 14406 ft 361 kts
2026-05-06 03:45 20.21502 -102.68982 13957 ft 353 kts 338°
2026-05-06 03:45 20.23504 -102.70345 13824 ft 335 kts 312°
2026-05-06 03:45 20.24752 -102.72340 13814 ft 315 kts 296°
2026-05-06 03:45 20.25671 -102.74387 13813 ft 299 kts 295°
2026-05-06 03:46 20.26568 -102.76366 13813 ft 295 kts 296°
2026-05-06 03:46 20.27506 -102.78318 13824 ft 296 kts 297°
2026-05-06 03:46 20.28475 -102.80250 13820 ft 296 kts 298°
2026-05-06 03:46 20.29463 -102.82167 13707 ft 293 kts 298°
2026-05-06 03:47 20.30452 -102.84058 13400 ft 292 kts 299°
2026-05-06 03:47 20.31399 -102.85852 13193 ft 290 kts 299°
2026-05-06 03:47 20.32386 -102.87718 12863 ft 289 kts 299°
2026-05-06 03:47 20.33378 -102.89587 12378 ft 289 kts 299°
2026-05-06 03:48 20.34367 -102.91450 11943 ft 288 kts 299°
2026-05-06 03:48 20.35352 -102.93304 11526 ft 287 kts 299°
2026-05-06 03:48 20.36331 -102.95147 11119 ft 285 kts 299°
2026-05-06 03:48 20.36975 -102.96360 10834 ft 283 kts 299°
2026-05-06 03:49 20.38268 -102.98793 10368 ft 279 kts 299°
2026-05-06 03:49 20.38899 -102.99983 10325 ft 279 kts 299°
2026-05-06 03:49 20.40113 -103.02437 10319 ft 280 kts 295°
2026-05-06 03:49 20.40926 -103.04327 10318 ft 280 kts 294°
2026-05-06 03:50 20.41743 -103.06216 10318 ft 280 kts 294°
2026-05-06 03:50 20.42529 -103.08061 10345 ft 269 kts 294°
2026-05-06 03:50 20.43283 -103.09838 10332 ft 261 kts 294°
2026-05-06 03:50 20.44028 -103.11594 10320 ft 260 kts 294°
2026-05-06 03:51 20.44750 -103.13305 10295 ft 239 kts 294°
2026-05-06 03:51 20.45188 -103.14346 10163 ft 227 kts 294°
2026-05-06 03:51 20.46023 -103.16348 9617 ft 216 kts 294°
2026-05-06 03:51 20.46625 -103.17799 9240 ft 215 kts 293°
2026-05-06 03:52 20.47228 -103.19256 9215 ft 214 kts 294°
2026-05-06 03:52 20.47834 -103.20702 9217 ft 212 kts 294°
2026-05-06 03:52 20.48233 -103.21655 9215 ft 212 kts 294°
2026-05-06 03:52 20.49029 -103.23557 9221 ft 212 kts 294°
2026-05-06 03:53 20.49632 -103.24999 9389 ft 214 kts 294°
2026-05-06 03:53 20.50237 -103.26446 9688 ft 213 kts 294°
2026-05-06 03:53 20.50843 -103.27906 9872 ft 219 kts 291°
2026-05-06 03:53 20.51078 -103.29525 9943 ft 227 kts 260°
2026-05-06 03:54 20.50440 -103.31076 10018 ft 235 kts 229°
2026-05-06 03:54 20.49603 -103.31820 10065 ft 240 kts 208°
2026-05-06 03:54 20.47994 -103.32361 10148 ft 248 kts 189°
2026-05-06 03:54 20.45670 -103.32654 10277 ft 258 kts 186°
2026-05-06 03:55 20.43856 -103.32728 10343 ft 265 kts 172°
2026-05-06 03:55 20.42128 -103.32012 10393 ft 271 kts 143°
2026-05-06 03:55 20.40885 -103.30491 10445 ft 277 kts 116°
2026-05-06 03:55 20.40501 -103.29193 10481 ft 280 kts 96°
2026-05-06 03:56 20.40893 -103.26488 10739 ft 269 kts 75°
2026-05-06 03:56 20.40996 -103.24607 10813 ft 246 kts 102°
2026-05-06 03:56 20.40863 -103.24037 10821 ft 243 kts 108°
2026-05-06 03:56 20.39784 -103.21293 10813 ft 232 kts 115°
2026-05-06 03:57 20.39113 -103.19776 10817 ft 226 kts 115°
2026-05-06 03:57 20.38442 -103.18266 10819 ft 225 kts 115°
2026-05-06 03:57 20.37088 -103.15223 10818 ft 225 kts 115°
2026-05-06 03:58 20.36419 -103.13718 10818 ft 225 kts 115°
2026-05-06 03:58 20.35904 -103.12154 10803 ft 224 kts 93°
2026-05-06 03:58 20.36177 -103.10583 10808 ft 220 kts 60°
2026-05-06 03:58 20.37182 -103.09374 10371 ft 221 kts 30°
2026-05-06 03:59 20.38629 -103.08914 9839 ft 219 kts 356°
2026-05-06 03:59 20.40070 -103.09345 9391 ft 215 kts 332°
2026-05-06 03:59 20.41346 -103.10151 8978 ft 212 kts 326°
2026-05-06 03:59 20.42572 -103.11020 8546 ft 210 kts 323°
2026-05-06 04:00 20.43672 -103.12028 8140 ft 207 kts 313°
2026-05-06 04:00 20.44574 -103.13187 7978 ft 198 kts 302°
2026-05-06 04:00 20.45214 -103.14442 7777 ft 194 kts 295°
2026-05-06 04:00 20.45764 -103.15753 7559 ft 193 kts 293°
2026-05-06 04:01 20.45948 -103.16197 7476 ft 193 kts 293°
2026-05-06 04:01 20.46672 -103.17925 7158 ft 192 kts 294°
2026-05-06 04:01 20.47219 -103.19226 6926 ft 192 kts 294°
2026-05-06 04:01 20.47581 -103.20090 6764 ft 191 kts 294°
2026-05-06 04:02 20.48303 -103.21816 6437 ft 189 kts 294°
2026-05-06 04:02 20.48981 -103.23438 6176 ft 171 kts 294°
2026-05-06 04:02 20.49143 -103.23826 6081 ft 168 kts 294°
2026-05-06 04:02 20.49611 -103.24945 5885 ft 164 kts 294°
2026-05-06 04:03 20.50226 -103.26419 5613 ft 164 kts 294°
2026-05-06 04:03 20.50848 -103.27909 5335 ft 164 kts 294°
2026-05-06 04:03 20.51156 -103.28646 5202 ft 164 kts 294°
2026-05-06 04:03 20.51738 -103.30059 5019 ft 122 kts 294°
2026-05-06 04:04 20.51944 -103.30546 5022 ft 31 kts 294°
2026-05-06 04:04 20.51991 -103.30608 5022 ft 8 kts 354°
2026-05-06 04:04 20.52014 -103.30584 5022 ft 12 kts 75°